STARLINK-2550, 48293

Orbit data source: Space-Track

STARLINK-2550, 48293 is a payload satellite owned by SpaceX/Seattle (US) in LEO that was launched on Thu, 29 Apr 2021 UTC via an FALCON 9 launch vehicle from the Air Force Eastern Test Range (AFETR). Payload-class satellites include a variety of spacecraft equipped with specific instruments for various scientific and technological missions. These include communications satellites like Starlink; space stations such as the ISS; scientific satellites like the Hubble; Earth observation satellites from companies like Planet Labs, Umbra, and HawkEye 360; GPS; miniature CubeSats for education and research; and military/defense satellites.

Loading next visibility...
Identifier
48293, 2021-036T
Orbit
LEO
Country
Flag of USUS
Related business
Manufacturer
SpaceX/Seattle
Mission
Operational Commercial Communications
Bus & Motor
STARLINK, Unknown motor
Mass
260 kg wet, ~248 kg dry
Launch date (UTC)
2021-04-29 (5 years ago)
Launch vehicle
FALCON 9
Launch site
Air Force Eastern Test Range (AFETR)
Object type
Payload
Rocket body
Debris
Shape & HBR
Box + 1 Pan, 10.1 m
Radar Cross Section
13.562 m², Large (>1 m²)

Expand to show TLE details & history
Last TLE update: 5 hours ago

TLE from 5 hours ago
0 STARLINK-2550
1 48293U 21036T   26036.33335648  .00071723  00000-0  24759-2 0  9999
2 48293  53.1575 225.6836 0000888  92.3729 290.1251 15.29330374  5790
Epoch: 2026-02-05T08:00Z
TLE epoch observation values (Epoch: 2026-02-05T08:00:01.999Z)
Latitude
17.85484°
Longitude
-15.92435°
Altitude
477.92 km
Speed
7.63 km/s
True Right ascension
15h 58m 17s
True Declination
17° 45' 02"
Sunlit
Object was in daylight at epoch
Visualization orbit readout
Latitude
Unknown
Longitude
Unknown
Altitude
Unknown
Speed
Unknown
Apparent Right ascension
Unknown
Apparent Declination
Unknown
Sunlit
N/A
Visualization observer readout
Local Sidereal Time
15:17:57
Azimuth
Unknown
Elevation
Unknown
Doppler factor
Unknown
Orbital elements
Apogee altitude
478.678 km
Perigee altitude
477.461 km
Semi-major axis
6,856.207 km
Eccentricity
0.00009
Inclination
53.1575°
RAAN
225.6836°
Arg. of periapsis
92.3729°
True anomaly
290.11555°
Mean anomaly
290.1251°
Eccentric anomaly
290.12032°
Mean motion
3.82311 °/min
Orbital period
94.16 mins
BSTAR
0.0024759
Loading maneuver chart data...
Computing Atmospheric mass density...
Loading historical data...
Loading historical data...
Loading historical data...
Loading historical data...
Loading historical data...
Loading historical data...
Loading historical data...

Documentation

Showing up to 5 results
|